Weather History for Greensboro, NC

Change the Weather History Date:

Sunday, September 14, 2014

  Actual Average Record
Temperature  
Mean Temperature 67 °F 71 °F  
Max Temperature 71 °F 80 °F 95 °F (1927)
Min Temperature 63 °F 61 °F 39 °F (1985)
Degree Days  
Heating Degree Days 0 1  
Month to date heating degree days 0 2  
Since 1 July heating degree days 0 3  
Cooling Degree Days 2 6  
Month to date cooling degree days 146 115  
Year to date cooling degree days 1399 1377  
Growing Degree Days 17 (Base 50)    
Moisture  
Dew Point 56 °F    
Average Humidity 76    
Maximum Humidity 90    
Minimum Humidity 61    
Precipitation  
Precipitation T in 0.15 in 3.78 in (2000)
Month to date precipitation 2.11 2.12  
Year to date precipitation 27.99 30.91  
Sea Level Pressure  
Sea Level Pressure 30.23 in    
Wind  
Wind Speed 6 mph (NE)    
Max Wind Speed 14 mph    
Max Gust Speed 17 mph    
Visibility 10 miles    
Events Rain    
T = Trace of Precipitation, MM = Missing Value Source: NWS Daily Summary

Daily Weather History Graph

Daily Weather History Graph

Search for Another Location

Airport:

Trip Planner

Search our weather history database for the weather conditions in past years. The results will help you decide how hot, cold, wet, or windy it might be!

Date:

Astronomy

Sep. 14, 2014 Rise Set
Actual Time 7:01 AM EDT 7:28 PM EDT
Civil Twilight 6:35 AM EDT 7:54 PM EDT
Nautical Twilight 6:05 AM EDT 8:24 PM EDT
Astronomical Twilight 5:34 AM EDT 8:55 PM EDT
Moon 11:30 PM EDT (9/14) 12:55 PM EDT (9/14)
Length of Visible Light 13h 18m
Length of Day
12h 27m
Waning Gibbous, 64% of the Moon is Illuminated
Sep 14
Waning Gibbous
Sep 15
Last Quarter
Sep 24
New
Oct 1
First Quarter
Oct 8
Full

Hourly Weather History & Observations

Time (EDT) Temp. Dew Point Humidity Pressure Visibility Wind Dir Wind Speed Gust Speed Precip Events Conditions
12:54 AM 63.0 °F 54.0 °F 72% 30.19 in 10.0 mi NNE 4.6 mph - N/A   Mostly Cloudy
1:06 AM 62.6 °F 53.6 °F 72% 30.22 in 10.0 mi North 3.5 mph - N/A   Overcast
1:54 AM 63.0 °F 54.0 °F 72% 30.19 in 10.0 mi NNE 9.2 mph - N/A   Overcast
2:54 AM 64.0 °F 57.0 °F 78% 30.19 in 10.0 mi NE 6.9 mph - N/A   Overcast
3:54 AM 64.0 °F 57.9 °F 80% 30.19 in 10.0 mi NE 8.1 mph - N/A   Overcast
4:33 AM 62.6 °F 57.2 °F 82% 30.21 in 10.0 mi Variable 3.5 mph - N/A   Overcast
4:54 AM 63.0 °F 57.9 °F 84% 30.19 in 10.0 mi ENE 3.5 mph - N/A   Overcast
5:54 AM 63.0 °F 59.0 °F 87% 30.21 in 10.0 mi NNE 3.5 mph - N/A   Overcast
6:54 AM 63.0 °F 59.0 °F 87% 30.24 in 10.0 mi North 3.5 mph - N/A   Mostly Cloudy
7:54 AM 63.0 °F 55.9 °F 78% 30.26 in 10.0 mi ENE 8.1 mph - N/A   Overcast
8:54 AM 63.0 °F 55.0 °F 75% 30.27 in 10.0 mi ENE 9.2 mph - N/A   Overcast
9:54 AM 63.0 °F 55.9 °F 78% 30.28 in 9.0 mi NE 11.5 mph - 0.00 in Rain Light Rain
10:54 AM 63.0 °F 55.9 °F 78% 30.28 in 10.0 mi NE 10.4 mph - 0.00 in   Overcast
11:54 AM 64.9 °F 55.0 °F 70% 30.28 in 10.0 mi NNE 11.5 mph - N/A   Mostly Cloudy
12:54 PM 66.0 °F 54.0 °F 65% 30.27 in 10.0 mi ENE 4.6 mph - N/A   Overcast
1:54 PM 68.0 °F 55.0 °F 63% 30.26 in 10.0 mi ENE 5.8 mph - N/A   Overcast
2:54 PM 70.0 °F 55.9 °F 61% 30.23 in 10.0 mi ENE 8.1 mph - N/A   Mostly Cloudy
3:54 PM 69.1 °F 55.0 °F 61% 30.22 in 10.0 mi North 6.9 mph - N/A   Mostly Cloudy
4:54 PM 70.0 °F 55.0 °F 59% 30.21 in 10.0 mi North 6.9 mph - N/A   Overcast
5:54 PM 69.1 °F 55.0 °F 61% 30.20 in 10.0 mi NE 6.9 mph - N/A   Mostly Cloudy
6:54 PM 66.9 °F 55.0 °F 66% 30.20 in 10.0 mi NNE 4.6 mph - N/A   Mostly Cloudy
7:54 PM 64.9 °F 55.9 °F 73% 30.20 in 10.0 mi ENE 5.8 mph - N/A   Mostly Cloudy
8:54 PM 64.9 °F 55.9 °F 73% 30.22 in 10.0 mi ENE 6.9 mph - N/A   Mostly Cloudy
9:54 PM 64.0 °F 57.0 °F 78% 30.23 in 10.0 mi Calm Calm - N/A   Mostly Cloudy
10:54 PM 64.0 °F 57.0 °F 78% 30.22 in 10.0 mi East 3.5 mph - N/A   Overcast
11:54 PM 64.0 °F 57.0 °F 78% 30.22 in 10.0 mi ENE 3.5 mph - N/A   Overcast